[[{"header":{"parameterUnit":"m.s-1","parameterCategory":2,"la1":30.2991,"la2":30.254,"lo1":-89.0895,"lo2":-89.0444,"dy":0.0017,"dx":0.0017,"nx":28,"ny":28,"refTime":"2025-07-07T21:00:00:Z","depth":"0","parameterNumber":2,"parameterNumberName":"U-component_of_CURRENTS"},"data":[0,0,0,0,0,0,0,0,0,0,0,0,0,0,0,0,0,0,0,0,0,0,0,0,0,0,0,0,0,0,0,0,0,0,0,0,0,0,0,0,0,0,0,0,0,0,0,0,0,0,0,0,0,0,0,0,0,0,0.4124,0.4126,0,0.421,0.421,0.4209,0.4196,0.4196,0.4196,0.4195,0.4202,0.4202,0.4203,0,0,0,0,0,0,0,0,0,0,0,0,0,0.3884,0.3888,0.4123,0.4126,0.4128,0.421,0.421,0.4209,0.4196,0.4196,0.4195,0.4195,0.4202,0.4202,0.4203,0,0,0,0,0,0,0,0,0,0,0,0,0,0.3968,0.3889,0.4123,0.4141,0.4145,0.421,0.421,0.4209,0.4196,0.4196,0.4195,0.4195,0.4202,0.4202,0.4203,0.4213,0,0,0.4204,0.4205,0,0,0,0,0,0,0,0,0.3964,0.3976,0.4136,0.414,0.4144,0.4204,0.4129,0.4212,0.4196,0.4162,0.4195,0.4195,0.4204,0.4204,0.4203,0.4214,0.4214,0.4205,0.4205,0.4205,0.4205,0,0,0,0,0,0,0,0.3958,0.3972,0.4144,0.4139,0.4144,0.4125,0.4135,0.4143,0.4172,0.4165,0.4168,0.4199,0.4204,0.4203,0.4203,0.4214,0.4205,0.4205,0.4205,0.4206,0.4275,0.4277,0,0,0,0,0,0,0.3979,0.3967,0.4141,0.4148,0.4067,0.413,0.4141,0.4174,0.4174,0.4178,0.4199,0.4198,0.4202,0.4203,0.4204,0.4257,0.4205,0.4206,0.4206,0.4274,0.4276,0.4277,0,0,0,0,0,0,0.3974,0.3994,0.4138,0.4069,0.4088,0.4137,0.4172,0.4176,0.4184,0.4203,0.4203,0.4206,0.4202,0.4203,0.4225,0.4256,0.4206,0.4206,0.4272,0.4275,0.4277,0.4338,0,0,0,0,0,0,0.3966,0.3991,0.4016,0.4071,0.4094,0.4184,0.4174,0.4179,0.421,0.4209,0.4209,0.4209,0.4202,0.4224,0.4225,0.4256,0.4207,0.427,0.4273,0.4276,0.4334,0.4342,0.4349,0,0,0,0,0,0.3957,0.4005,0.4017,0.4039,0.4129,0.4187,0.4194,0.4217,0.4211,0.4219,0.4223,0.4209,0.4243,0.4226,0.4227,0.4258,0.4269,0.4272,0.4276,0.4331,0.434,0.4349,0,0,0,0,0,0,0.3916,0.4011,0.4025,0.4099,0.4142,0.4189,0.4216,0.4224,0.4232,0.4233,0.4225,0.4226,0.4254,0.425,0.4232,0.4287,0.4255,0.4259,0.4296,0.4305,0.4313,0.4309,0.4207,0,0,0,0,0,0.3923,0.398,0.4051,0.4108,0.4134,0.417,0.4196,0.4214,0.424,0.4243,0.4243,0.4252,0.4269,0.4282,0.4287,0.432,0.4353,0.4342,0.435,0.4356,0.4355,0.4436,0.4451,0.4289,0.4289,0.4288,0,0,0.3929,0.3986,0.4022,0.4103,0.4136,0.418,0.4181,0.4233,0.4264,0.4244,0.427,0.4272,0.4281,0.4316,0.4329,0.4318,0.4428,0.436,0.4366,0.4361,0.4441,0.4457,0.4471,0.4291,0.429,0.429,0,0,0.3967,0.4014,0.407,0.4106,0.4176,0.4199,0.4216,0.4264,0.4276,0.4309,0.4307,0.4332,0.4345,0.4369,0.4382,0.4436,0.4458,0.4437,0.4481,0.456,0.4575,0.4587,0.4686,0.4707,0.445,0.445,0.445,0,0.3973,0.4048,0.4091,0.4142,0.4182,0.4207,0.4258,0.4279,0.4322,0.4347,0.4324,0.4376,0.4374,0.4443,0.4453,0.4453,0.4507,0.4446,0.4572,0.4584,0.4596,0.4694,0.4717,0.4453,0.4453,0.4452,0.4452,0,0.4049,0.4098,0.4132,0.4204,0.4241,0.4293,0.4336,0.436,0.4372,0.4399,0.4454,0.4458,0.4497,0.4501,0.4487,0.4577,0.4592,0.4567,0.455,0.4617,0.4716,0.4738,0.4458,0.4457,0.4456,0.4455,0,0,0.4091,0.4174,0.4181,0.4213,0.428,0.4321,0.437,0.4434,0.4478,0.45,0.4562,0.4585,0.4594,0.4608,0.4612,0.4662,0.4792,0.4648,0.4651,0.4749,0.4997,0.4993,0.5017,0.4793,0.4796,0.4799,0.5045,0,0.4137,0.4232,0.4259,0.4328,0.438,0.4404,0.4451,0.4505,0.4538,0.4594,0.4625,0.4672,0.464,0.4662,0.4717,0.4764,0.4848,0.4729,0.4914,0.492,0.4909,0.504,0.4788,0.4984,0.5067,0.5071,0.5073,0,0.42,0.4257,0.4332,0.4401,0.4425,0.4458,0.4537,0.4583,0.4661,0.4694,0.4754,0.4768,0.4857,0.48,0.4965,0.4895,0.4955,0.4987,0.4998,0.4981,0.4956,0.4923,0.5021,0.4871,0.5108,0.5105,0.5102,0,0.4214,0.4302,0.4359,0.4384,0.4464,0.4493,0.4538,0.4614,0.4646,0.4758,0.4788,0.4906,0.4954,0.5049,0.5115,0.5057,0.5291,0.5229,0.5298,0.53,0.5113,0.5092,0.508,0.5361,0.536,0.536,0.5359,0,0.4248,0.4291,0.4365,0.4394,0.4445,0.4514,0.4565,0.4627,0.4709,0.4771,0.4838,0.4917,0.5009,0.5131,0.5193,0.5341,0.5382,0.5344,0.5372,0.5131,0.511,0.4989,0.4933,0.5369,0.5367,0.5365,0.5364,0,0.422,0.4282,0.4335,0.4421,0.4441,0.4472,0.4533,0.4588,0.4677,0.4759,0.4792,0.4948,0.5153,0.5257,0.5441,0.5443,0.5435,0.5614,0.5338,0.5329,0.5218,0.5175,0.5101,0.4957,0.574,0.5741,0.5743,0,0.4199,0.4235,0.4311,0.4337,0.436,0.4412,0.4455,0.4549,0.4607,0.4788,0.4841,0.5048,0.5185,0.5471,0.5563,0.5731,0.5533,0.5552,0.5381,0.5217,0.5191,0.5007,0.4875,0.5178,0.5175,0.5172,0.517,0,0.4147,0.4178,0.4221,0.4269,0.4309,0.4338,0.4416,0.4438,0.4583,0.4652,0.4811,0.4929,0.5245,0.5311,0.5532,0.5588,0.5269,0.5502,0.5379,0.4808,0.4556,0.4427,0.5039,0.5144,0.5147,0.5149,0.515,0.5151,0.408,0.4091,0.4153,0.4178,0.4223,0.4247,0.4218,0.4325,0.4369,0.4435,0.4691,0.476,0.4966,0.5261,0.5311,0.5195,0.5213,0.4989,0.498,0.4833,0.4579,0.517,0.527,0.5273,0.5276,0.5278,0.528,0,0.3966,0.402,0.4065,0.4075,0.4059,0.4126,0.4167,0.4107,0.4097,0.4244,0.4334,0.4446,0.4549,0.4697,0.4765,0.4634,0.4413,0.4506,0.4128,0.4047,0.4611,0.4465,0.4334,0.4334,0.4334,0.4334,0.4335,0.4335,0.3918,0.3923,0.3951,0.3886,0.3894,0.3787,0.3765,0.3712,0.3738,0.37,0.3702,0.3854,0.4164,0.4367,0.427,0.4173,0.3854,0.3722,0.3762,0.4094,0.4134,0.4171,0.4017,0.3794,0.3794,0.2954,0.2948,0.2943]},{"header":{"parameterUnit":"m.s-1","parameterCategory":2,"la1":30.2991,"la2":30.254,"lo1":-89.0895,"lo2":-89.0444,"dy":0.0017,"dx":0.0017,"nx":28,"ny":28,"refTime":"2025-07-07T21:00:00:Z","depth":"0","parameterNumber":3,"parameterNumberName":"V-component_of_CURRENTS"},"data":[0,0,0,0,0,0,0,0,0,0,0,0,0,0,0,0,0,0,0,0,0,0,0,0,0,0,0,0,0,0,0,0,0,0,0,0,0,0,0,0,0,0,0,0,0,0,0,0,0,0,0,0,0,0,0,0,0,0,-0.0528,-0.0529,0,-0.0647,-0.0648,-0.065,-0.0692,-0.0691,-0.0691,-0.069,-0.0842,-0.0847,-0.0851,0,0,0,0,0,0,0,0,0,0,0,0,0,-0.0302,-0.0306,-0.0528,-0.0529,-0.0531,-0.0647,-0.0648,-0.065,-0.0692,-0.0691,-0.0691,-0.069,-0.0841,-0.0846,-0.0852,0,0,0,0,0,0,0,0,0,0,0,0,0,-0.0409,-0.0308,-0.0527,-0.0566,-0.057,-0.0647,-0.0649,-0.0651,-0.0692,-0.0691,-0.0691,-0.069,-0.0839,-0.0846,-0.0852,-0.0907,0,0,-0.0873,-0.0876,0,0,0,0,0,0,0,0,-0.0403,-0.0417,-0.0558,-0.0563,-0.0568,-0.0654,-0.0625,-0.0738,-0.0692,-0.0646,-0.069,-0.069,-0.0783,-0.0794,-0.0818,-0.0914,-0.092,-0.0873,-0.0877,-0.088,-0.0882,0,0,0,0,0,0,0,-0.0395,-0.0412,-0.0575,-0.056,-0.0566,-0.0565,-0.058,-0.0646,-0.0717,-0.065,-0.0653,-0.0667,-0.0786,-0.0811,-0.0822,-0.0923,-0.0873,-0.0879,-0.0883,-0.0886,-0.1047,-0.1047,0,0,0,0,0,0,-0.0384,-0.0406,-0.0571,-0.0578,-0.0482,-0.057,-0.0586,-0.0627,-0.0716,-0.0728,-0.0667,-0.0668,-0.08,-0.0814,-0.0827,-0.0842,-0.088,-0.0886,-0.089,-0.1046,-0.1047,-0.1047,0,0,0,0,0,0,-0.0379,-0.0399,-0.0566,-0.0492,-0.0514,-0.0575,-0.062,-0.063,-0.0656,-0.0729,-0.0742,-0.0682,-0.08,-0.0818,-0.088,-0.0851,-0.0889,-0.0896,-0.1046,-0.1046,-0.1047,-0.0908,0,0,0,0,0,0,-0.0373,-0.0397,-0.0424,-0.0493,-0.0518,-0.0608,-0.0621,-0.0633,-0.0665,-0.0668,-0.0747,-0.076,-0.0801,-0.087,-0.0887,-0.0861,-0.0901,-0.1046,-0.1046,-0.1047,-0.0913,-0.0904,-0.0897,0,0,0,0,0,-0.0365,-0.0399,-0.0426,-0.0445,-0.0554,-0.0608,-0.0621,-0.066,-0.0666,-0.068,-0.0728,-0.0757,-0.0884,-0.0876,-0.0896,-0.087,-0.1045,-0.1046,-0.1047,-0.0916,-0.0906,-0.0897,0,0,0,0,0,0,-0.0313,-0.0409,-0.0439,-0.0501,-0.055,-0.0615,-0.0633,-0.066,-0.0711,-0.071,-0.0773,-0.079,-0.0833,-0.0885,-0.0874,-0.0922,-0.0966,-0.0971,-0.086,-0.0851,-0.0843,-0.0776,-0.0906,0,0,0,0,0,-0.0316,-0.0367,-0.0447,-0.0492,-0.0517,-0.0575,-0.0603,-0.0629,-0.0681,-0.0701,-0.0752,-0.0807,-0.0854,-0.0877,-0.0937,-0.0971,-0.0975,-0.0968,-0.0959,-0.0952,-0.0913,-0.0905,-0.0891,-0.1049,-0.1049,-0.1049,0,0,-0.0307,-0.0365,-0.0394,-0.0484,-0.0524,-0.0534,-0.059,-0.0626,-0.0615,-0.0713,-0.072,-0.0792,-0.0863,-0.089,-0.0912,-0.0924,-0.0911,-0.0953,-0.0945,-0.091,-0.0904,-0.0888,-0.0873,-0.1049,-0.1049,-0.1049,0,0,-0.028,-0.0366,-0.0382,-0.0418,-0.0477,-0.0512,-0.0519,-0.0584,-0.0596,-0.0634,-0.0684,-0.0727,-0.082,-0.0835,-0.0861,-0.0851,-0.0878,-0.0888,-0.0777,-0.077,-0.0755,-0.0742,-0.0718,-0.0704,-0.087,-0.087,-0.087,0,-0.0259,-0.0293,-0.039,-0.0395,-0.0399,-0.0491,-0.0469,-0.0505,-0.0573,-0.0564,-0.0619,-0.0704,-0.0775,-0.0763,-0.076,-0.0823,-0.0826,-0.08,-0.0752,-0.074,-0.0729,-0.0708,-0.0694,-0.0863,-0.0864,-0.0865,-0.0866,0,-0.0228,-0.0247,-0.0254,-0.0289,-0.0313,-0.0317,-0.0368,-0.0384,-0.0421,-0.0446,-0.0467,-0.0565,-0.0604,-0.0641,-0.07,-0.0656,-0.0686,-0.0747,-0.0759,-0.0703,-0.0687,-0.0674,-0.0854,-0.0856,-0.0858,-0.086,0,0,-0.0183,-0.0222,-0.0218,-0.0189,-0.0248,-0.025,-0.0239,-0.024,-0.0196,-0.0286,-0.023,-0.0333,-0.0392,-0.0426,-0.0507,-0.0501,-0.0442,-0.0581,-0.0584,-0.0523,-0.0407,-0.0429,-0.0419,-0.0496,-0.0494,-0.0492,-0.0422,0,-0.0112,-0.0069,-0.0117,-0.005,-0.0022,-0.0082,-0.0052,-0.0065,-0.0095,-0.0075,-0.0161,-0.0176,-0.0308,-0.0328,-0.0343,-0.0425,-0.0406,-0.0454,-0.0499,-0.0499,-0.0498,-0.0404,-0.0424,-0.0363,-0.041,-0.0408,-0.0407,0,-0.0042,-0.0019,0.0064,0.0108,0.0115,0.0142,0.0197,0.0209,0.0197,0.0172,0.0136,0.0043,0.0018,-0.011,-0.0171,-0.0199,-0.0279,-0.034,-0.034,-0.0391,-0.0498,-0.0434,-0.034,-0.058,-0.0389,-0.039,-0.0391,0,0.0089,0.0121,0.0208,0.0218,0.0237,0.0285,0.0296,0.03,0.0338,0.0332,0.035,0.0275,0.025,0.0141,-0.0031,-0.0094,-0.008,-0.019,-0.0269,-0.0272,-0.0309,-0.0319,-0.0419,-0.0194,-0.0194,-0.0194,-0.0195,0,0.0204,0.0276,0.0282,0.0336,0.0444,0.0417,0.0529,0.0524,0.055,0.0631,0.0486,0.0539,0.0309,0.0252,0.0082,-0.0035,0.0004,-0.0201,-0.0239,-0.0265,-0.0272,-0.0503,-0.0635,-0.0192,-0.0192,-0.0193,-0.0193,0,0.0342,0.0347,0.0445,0.049,0.0512,0.059,0.065,0.0725,0.073,0.0835,0.0834,0.076,0.0693,0.0477,0.0329,0.0132,-0.0116,-0.0048,-0.0055,-0.0096,-0.0429,-0.0552,-0.0653,-0.0732,-0.0117,-0.0116,-0.0116,0,0.0419,0.0487,0.0556,0.0612,0.0639,0.0732,0.0796,0.0813,0.0893,0.0991,0.1061,0.1022,0.1028,0.0796,0.0458,0.0199,-0.0049,-0.0026,-0.0161,-0.04,-0.0566,-0.0674,-0.0742,-0.0154,-0.0155,-0.0155,-0.0155,0,0.056,0.0579,0.0643,0.0744,0.0827,0.0918,0.1016,0.1106,0.1164,0.1273,0.1426,0.1455,0.1226,0.0965,0.0565,0.0334,-0.0202,-0.0038,-0.0284,-0.0576,-0.0698,-0.0809,-0.0247,-0.0157,-0.0157,-0.0156,-0.0156,-0.0156,0.0647,0.0706,0.0773,0.0871,0.0965,0.1091,0.1195,0.1322,0.1488,0.1683,0.1709,0.1807,0.1376,0.0839,0.0502,-0.0193,-0.0183,-0.044,-0.0554,-0.063,-0.0752,-0.0177,-0.0147,-0.0147,-0.0147,-0.0146,-0.0146,0,0.0735,0.0792,0.089,0.1003,0.1117,0.1146,0.1328,0.1455,0.1684,0.1884,0.2037,0.188,0.1344,0.0742,-0.0148,-0.0631,-0.0828,-0.0914,-0.1097,-0.113,-0.0613,-0.0666,-0.0749,-0.0749,-0.0749,-0.0749,-0.0748,-0.0748,0.0783,0.0881,0.0919,0.1102,0.1195,0.1366,0.1481,0.1688,0.1857,0.2114,0.2183,0.2198,0.1718,0.0166,-0.0916,-0.1172,-0.1515,-0.1593,-0.1723,-0.1435,-0.1401,-0.1369,-0.1452,-0.1698,-0.1699,-0.2206,-0.2211,-0.2215]}],[{"header":{"parameterUnit":"m.s-1","parameterCategory":2,"la1":30.2991,"la2":30.254,"lo1":-89.0895,"lo2":-89.0444,"dy":0.0017,"dx":0.0017,"nx":28,"ny":28,"refTime":"2025-07-07T21:00:00:Z","depth":"2","parameterNumber":2,"parameterNumberName":"U-component_of_CURRENTS"},"data":[0,0,0,0,0,0,0,0,0,0,0,0,0,0,0,0,0,0,0,0,0,0,0,0,0,0,0,0,0,0,0,0,0,0,0,0,0,0,0,0,0,0,0,0,0,0,0,0,0,0,0,0,0,0,0,0,0,0,0.2764,0.2764,0,0.2804,0.2805,0.2805,0.2987,0.2991,0.2995,0.2998,0.2948,0.2943,0.2938,0,0,0,0,0,0,0,0,0,0,0,0,0,0.2712,0.2713,0.2764,0.2764,0.2764,0.2804,0.2805,0.2806,0.2986,0.2991,0.2996,0.3,0.2949,0.2944,0.2938,0,0,0,0,0,0,0,0,0,0,0,0,0,0.2746,0.2714,0.2764,0.2856,0.2865,0.2804,0.2805,0.2806,0.2985,0.2991,0.2997,0.3002,0.2951,0.2944,0.2937,0.2774,0,0,0.2914,0.2911,0,0,0,0,0,0,0,0,0.2744,0.2748,0.2843,0.285,0.2859,0.2893,0.2768,0.2789,0.2984,0.2943,0.2998,0.3005,0.2914,0.291,0.2911,0.2771,0.2769,0.2913,0.2909,0.2906,0.2904,0,0,0,0,0,0,0,0.2741,0.2746,0.2784,0.2842,0.2852,0.285,0.2863,0.2773,0.2897,0.2947,0.296,0.2956,0.292,0.2918,0.2911,0.2769,0.2914,0.2907,0.2902,0.2899,0.2718,0.2718,0,0,0,0,0,0,0.2729,0.2744,0.2783,0.2785,0.281,0.2846,0.2861,0.2879,0.29,0.2909,0.2951,0.2964,0.2928,0.292,0.291,0.2939,0.2906,0.2899,0.2894,0.2718,0.2718,0.2717,0,0,0,0,0,0,0.2728,0.2733,0.2781,0.2761,0.2767,0.2842,0.286,0.2877,0.2951,0.2903,0.2912,0.3017,0.2933,0.292,0.2892,0.293,0.2895,0.2889,0.2719,0.2718,0.2718,0.2854,0,0,0,0,0,0,0.2727,0.2732,0.2727,0.2761,0.2768,0.2802,0.2855,0.2873,0.2933,0.2954,0.2959,0.2958,0.2936,0.2904,0.2885,0.2919,0.2883,0.2719,0.2718,0.2718,0.285,0.2858,0.2865,0,0,0,0,0,0.2725,0.2754,0.2727,0.2731,0.2764,0.2803,0.2808,0.2881,0.2931,0.2969,0.297,0.2962,0.2888,0.2896,0.2875,0.2908,0.2719,0.2719,0.2718,0.2846,0.2856,0.2865,0,0,0,0,0,0,0.2801,0.2773,0.2748,0.2783,0.2793,0.2834,0.2872,0.29,0.2929,0.2961,0.2934,0.2929,0.2925,0.2871,0.2882,0.2851,0.2808,0.2803,0.2913,0.2922,0.293,0.3019,0.2877,0,0,0,0,0,0.2779,0.2769,0.2758,0.2793,0.2797,0.2824,0.2844,0.2892,0.2917,0.2945,0.2944,0.2923,0.2881,0.2876,0.2829,0.2783,0.285,0.2794,0.2802,0.2809,0.2864,0.2992,0.3021,0.2715,0.2715,0.2715,0,0,0.2825,0.2803,0.2806,0.2798,0.2819,0.2832,0.286,0.2926,0.296,0.2916,0.2978,0.2942,0.2872,0.2859,0.2851,0.2836,0.2929,0.2808,0.2816,0.2868,0.2995,0.3027,0.3054,0.2714,0.2714,0.2714,0,0,0.2905,0.2888,0.2886,0.2878,0.288,0.2887,0.2913,0.2957,0.301,0.3003,0.3003,0.3012,0.2926,0.2932,0.2902,0.2907,0.2961,0.2875,0.2995,0.3118,0.3148,0.3174,0.3314,0.3352,0.2886,0.2886,0.2887,0,0.2904,0.2956,0.2906,0.29,0.2928,0.2919,0.2969,0.2973,0.3012,0.3066,0.3048,0.3039,0.2973,0.3002,0.301,0.2936,0.3026,0.2973,0.314,0.3167,0.3192,0.3329,0.3369,0.2893,0.2892,0.2891,0.2891,0,0.2991,0.301,0.3039,0.3,0.3014,0.3078,0.3059,0.3104,0.3138,0.3156,0.3222,0.3156,0.3197,0.3134,0.3061,0.3191,0.3207,0.3139,0.3142,0.3233,0.3369,0.3409,0.2902,0.29,0.2898,0.2896,0,0,0.2995,0.3066,0.3068,0.3112,0.3093,0.314,0.3173,0.3237,0.3329,0.3322,0.3462,0.3372,0.3418,0.3389,0.3332,0.3391,0.3608,0.3352,0.3356,0.354,0.3936,0.3762,0.3788,0.3595,0.3601,0.3607,0.3969,0,0.306,0.3138,0.3145,0.3247,0.3304,0.3305,0.3345,0.339,0.3434,0.3541,0.3526,0.3597,0.3488,0.3539,0.3597,0.3592,0.3718,0.352,0.3779,0.3788,0.3662,0.3829,0.3453,0.3727,0.4008,0.4014,0.4019,0,0.3115,0.3175,0.33,0.343,0.3456,0.3501,0.3644,0.3677,0.3759,0.3809,0.3905,0.3901,0.4001,0.3879,0.4059,0.3952,0.3999,0.3981,0.3994,0.3823,0.3688,0.3671,0.3789,0.4086,0.408,0.4075,0.4071,0,0.3197,0.3291,0.3433,0.3458,0.3556,0.3651,0.3716,0.3791,0.3838,0.4021,0.408,0.4229,0.4279,0.4391,0.4332,0.4267,0.45,0.4412,0.4326,0.4316,0.4041,0.3991,0.4618,0.4618,0.4617,0.4616,0.4615,0,0.3258,0.3364,0.3497,0.3572,0.3707,0.3771,0.3919,0.3992,0.4101,0.4174,0.4256,0.4337,0.4405,0.4487,0.4499,0.4533,0.4681,0.4426,0.4417,0.4068,0.402,0.4337,0.4299,0.4629,0.4627,0.4624,0.4622,0,0.3264,0.3383,0.3522,0.3693,0.3746,0.3831,0.3956,0.4035,0.4173,0.4281,0.4347,0.4466,0.4596,0.4619,0.4764,0.4699,0.4767,0.474,0.4322,0.4255,0.4491,0.4456,0.4798,0.4796,0.4793,0.4791,0.479,0,0.3256,0.3339,0.3548,0.36,0.3674,0.3806,0.3862,0.4033,0.4101,0.4327,0.4366,0.4536,0.4542,0.4684,0.4641,0.4712,0.4767,0.4419,0.4199,0.4564,0.4522,0.4489,0.4458,0.3922,0.3913,0.3906,0.39,0,0.3163,0.3263,0.3355,0.349,0.3592,0.3669,0.3805,0.3855,0.4055,0.4151,0.4267,0.4309,0.4418,0.4261,0.4314,0.4303,0.4376,0.4278,0.4839,0.3877,0.375,0.3702,0.3699,0.3838,0.3844,0.3849,0.3852,0.3855,0.3042,0.305,0.3192,0.3287,0.3414,0.3489,0.351,0.3652,0.3726,0.379,0.3965,0.39,0.395,0.3792,0.3746,0.3761,0.4043,0.3899,0.3917,0.3944,0.3721,0.3589,0.3611,0.3616,0.362,0.3623,0.3627,0,0.2845,0.29,0.2961,0.3091,0.3149,0.3322,0.3409,0.3386,0.3425,0.3474,0.3474,0.3128,0.3047,0.3162,0.3068,0.3113,0.3052,0.3034,0.2914,0.2979,0.3037,0.2761,0.2402,0.2398,0.2394,0.2391,0,0,0.2752,0.2721,0.2747,0.2766,0.2905,0.2926,0.2958,0.2965,0.2972,0.2788,0.2702,0.2784,0.2991,0.2591,0.2598,0.2489,0.2701,0.2405,0.3388,0.3306,0.3357,0.3544,0.3195,0,0,0,0,0]},{"header":{"parameterUnit":"m.s-1","parameterCategory":2,"la1":30.2991,"la2":30.254,"lo1":-89.0895,"lo2":-89.0444,"dy":0.0017,"dx":0.0017,"nx":28,"ny":28,"refTime":"2025-07-07T21:00:00:Z","depth":"2","parameterNumber":3,"parameterNumberName":"V-component_of_CURRENTS"},"data":[0,0,0,0,0,0,0,0,0,0,0,0,0,0,0,0,0,0,0,0,0,0,0,0,0,0,0,0,0,0,0,0,0,0,0,0,0,0,0,0,0,0,0,0,0,0,0,0,0,0,0,0,0,0,0,0,0,0,-0.0262,-0.0263,0,-0.0352,-0.0354,-0.0355,-0.0486,-0.0488,-0.049,-0.0492,-0.0619,-0.062,-0.0622,0,0,0,0,0,0,0,0,0,0,0,0,0,-0.013,-0.0133,-0.0262,-0.0263,-0.0264,-0.0352,-0.0354,-0.0355,-0.0485,-0.0488,-0.049,-0.0493,-0.0618,-0.062,-0.0622,0,0,0,0,0,0,0,0,0,0,0,0,0,-0.0203,-0.0134,-0.0262,-0.0337,-0.0345,-0.0352,-0.0354,-0.0356,-0.0485,-0.0488,-0.0491,-0.0494,-0.0618,-0.062,-0.0622,-0.0576,0,0,-0.0629,-0.063,0,0,0,0,0,0,0,0,-0.0199,-0.0209,-0.0325,-0.0332,-0.034,-0.0408,-0.0354,-0.043,-0.0484,-0.0435,-0.0492,-0.0495,-0.0548,-0.0556,-0.057,-0.0582,-0.0587,-0.0629,-0.0631,-0.0632,-0.0632,0,0,0,0,0,0,0,-0.0194,-0.0205,-0.0301,-0.0326,-0.0335,-0.0342,-0.0356,-0.0369,-0.0476,-0.0439,-0.0448,-0.0453,-0.0553,-0.0567,-0.0574,-0.0589,-0.0629,-0.0631,-0.0633,-0.0634,-0.0659,-0.0659,0,0,0,0,0,0,-0.0178,-0.0201,-0.0298,-0.0303,-0.0273,-0.0342,-0.0358,-0.0386,-0.0475,-0.0491,-0.045,-0.0458,-0.0562,-0.0571,-0.0579,-0.0618,-0.0632,-0.0634,-0.0635,-0.066,-0.0659,-0.0658,0,0,0,0,0,0,-0.0175,-0.0187,-0.0294,-0.025,-0.0264,-0.0341,-0.0371,-0.0386,-0.0443,-0.0483,-0.05,-0.0496,-0.0565,-0.0576,-0.0614,-0.0621,-0.0635,-0.0637,-0.0661,-0.066,-0.0659,-0.064,0,0,0,0,0,0,-0.0171,-0.0186,-0.0196,-0.025,-0.0266,-0.0319,-0.0368,-0.0385,-0.0437,-0.045,-0.0526,-0.0539,-0.0568,-0.061,-0.0616,-0.0624,-0.0639,-0.0662,-0.066,-0.0659,-0.0641,-0.0638,-0.0636,0,0,0,0,0,-0.0167,-0.0197,-0.0196,-0.0208,-0.028,-0.0318,-0.0328,-0.0393,-0.0436,-0.0457,-0.0506,-0.0539,-0.0606,-0.0611,-0.0618,-0.0628,-0.0662,-0.0661,-0.0659,-0.0642,-0.0639,-0.0636,0,0,0,0,0,0,-0.0179,-0.0213,-0.0215,-0.0262,-0.0284,-0.034,-0.037,-0.0403,-0.0458,-0.0485,-0.053,-0.0544,-0.0581,-0.0596,-0.0601,-0.0628,-0.0639,-0.0639,-0.0624,-0.0621,-0.0618,-0.0594,-0.0641,0,0,0,0,0,-0.0168,-0.0192,-0.0218,-0.0257,-0.0267,-0.0314,-0.0338,-0.038,-0.043,-0.0462,-0.0511,-0.0551,-0.0568,-0.0592,-0.0615,-0.0626,-0.0621,-0.0634,-0.0632,-0.0629,-0.0613,-0.0617,-0.0614,-0.0653,-0.0653,-0.0653,0,0,-0.0187,-0.0206,-0.0223,-0.0256,-0.0286,-0.0286,-0.0341,-0.0393,-0.0401,-0.0461,-0.051,-0.0548,-0.0568,-0.0589,-0.0606,-0.0612,-0.0611,-0.0627,-0.0625,-0.061,-0.0615,-0.0612,-0.0608,-0.0652,-0.0653,-0.0653,0,0,-0.0209,-0.0249,-0.0249,-0.0256,-0.0283,-0.0304,-0.0319,-0.0378,-0.0417,-0.0444,-0.0489,-0.0527,-0.0566,-0.0582,-0.0589,-0.0576,-0.0597,-0.0593,-0.0564,-0.057,-0.0566,-0.0564,-0.0538,-0.0533,-0.0592,-0.0592,-0.0592,0,-0.0206,-0.022,-0.0258,-0.0245,-0.0244,-0.0308,-0.0294,-0.0331,-0.0398,-0.0409,-0.0462,-0.0511,-0.0553,-0.0544,-0.0555,-0.0571,-0.0569,-0.058,-0.0566,-0.0564,-0.0561,-0.0535,-0.053,-0.0591,-0.0591,-0.0592,-0.0592,0,-0.0204,-0.0206,-0.0221,-0.0206,-0.0215,-0.0232,-0.0258,-0.029,-0.0343,-0.0371,-0.0406,-0.0463,-0.0484,-0.0512,-0.0537,-0.0534,-0.0535,-0.0564,-0.0577,-0.0556,-0.053,-0.0525,-0.059,-0.059,-0.059,-0.0591,0,0,-0.0191,-0.0203,-0.0199,-0.0165,-0.0191,-0.019,-0.0208,-0.0213,-0.0202,-0.0295,-0.0276,-0.0354,-0.0403,-0.0412,-0.0458,-0.0481,-0.0476,-0.052,-0.0521,-0.0496,-0.0466,-0.051,-0.0509,-0.0514,-0.0514,-0.0513,-0.045,0,-0.0153,-0.0109,-0.0133,-0.0088,-0.0061,-0.0101,-0.0091,-0.0114,-0.0152,-0.0156,-0.0237,-0.0243,-0.0356,-0.036,-0.0411,-0.0452,-0.0464,-0.0488,-0.0488,-0.0486,-0.0531,-0.0506,-0.0502,-0.0451,-0.0445,-0.0444,-0.0443,0,-0.0104,-0.0081,-0.0021,0.0014,0.0023,0.0047,0.0074,0.0074,0.0044,0.0014,-0.0039,-0.0103,-0.0153,-0.0244,-0.0327,-0.0342,-0.0399,-0.0443,-0.0442,-0.0485,-0.0522,-0.0473,-0.0442,-0.0435,-0.0436,-0.0436,-0.0437,0,-0.0019,0.001,0.0068,0.008,0.0102,0.0133,0.0144,0.0132,0.0159,0.0138,0.0158,0.0054,0.0047,-0.0075,-0.0214,-0.0263,-0.0284,-0.0354,-0.0436,-0.0438,-0.0433,-0.0437,-0.0387,-0.0388,-0.0388,-0.0388,-0.0388,0,0.006,0.0113,0.0122,0.0167,0.0244,0.0231,0.0314,0.0305,0.0329,0.0397,0.0261,0.0303,0.0085,0.0023,-0.0134,-0.0264,-0.0222,-0.0413,-0.0428,-0.0426,-0.0429,-0.0421,-0.0426,-0.0385,-0.0386,-0.0386,-0.0387,0,0.0161,0.0165,0.0238,0.0273,0.0296,0.0358,0.043,0.0483,0.0496,0.0591,0.0596,0.0516,0.0421,0.0213,0.0062,-0.0122,-0.0255,-0.03,-0.0274,-0.029,-0.0423,-0.0428,-0.0395,-0.0397,-0.0398,-0.0398,-0.0399,0,0.0228,0.0271,0.0324,0.0369,0.0396,0.0478,0.0533,0.0564,0.0632,0.0736,0.0795,0.0742,0.0705,0.0445,0.0116,-0.0148,-0.0187,-0.0307,-0.0428,-0.0407,-0.0425,-0.0428,-0.0431,-0.0393,-0.0393,-0.0394,-0.0394,0,0.0335,0.0341,0.0388,0.0475,0.0547,0.0624,0.0719,0.0808,0.0877,0.099,0.1123,0.112,0.0838,0.0539,0.0141,-0.0055,-0.0291,-0.0328,-0.0279,-0.0414,-0.0407,-0.0424,-0.0427,-0.0398,-0.0398,-0.0398,-0.0397,-0.0397,0.0403,0.0447,0.0495,0.0586,0.0663,0.0773,0.0885,0.1006,0.1178,0.136,0.1335,0.1346,0.0973,0.0437,0.0093,-0.0292,-0.0298,-0.0444,-0.0441,-0.0438,-0.0472,-0.047,-0.0476,-0.0476,-0.0476,-0.0476,-0.0476,0,0.0498,0.0531,0.0603,0.0716,0.0827,0.0846,0.1011,0.1153,0.1408,0.1494,0.1602,0.1271,0.0918,0.0516,-0.0072,-0.0428,-0.0464,-0.0521,-0.0492,-0.0486,-0.0482,-0.0518,-0.0534,-0.0535,-0.0535,-0.0536,0,0,0.0544,0.0632,0.0665,0.0851,0.0941,0.1118,0.1234,0.1447,0.1555,0.1676,0.1662,0.1538,0.1029,0.0604,0.0118,-0.02,-0.026,-0.0266,-0.019,-0.0097,-0.0087,-0.0417,-0.0465,0,0,0,0,0]}],[{"header":{"parameterUnit":"m.s-1","parameterCategory":2,"la1":30.2991,"la2":30.254,"lo1":-89.0895,"lo2":-89.0444,"dy":0.0017,"dx":0.0017,"nx":28,"ny":28,"refTime":"2025-07-07T21:00:00:Z","depth":"4","parameterNumber":2,"parameterNumberName":"U-component_of_CURRENTS"},"data":[0,0,0,0,0,0,0,0,0,0,0,0,0,0,0,0,0,0,0,0,0,0,0,0,0,0,0,0,0,0,0,0,0,0,0,0,0,0,0,0,0,0,0,0,0,0,0,0,0,0,0,0,0,0,0,0,0,0,0.0864,0.0865,0,0.0931,0.0931,0.0932,0.0975,0.0975,0.0976,0.0976,0.1071,0.1074,0.1076,0,0,0,0,0,0,0,0,0,0,0,0,0,0.0756,0.0758,0.0864,0.0865,0.0866,0.0931,0.0931,0.0932,0.0975,0.0975,0.0976,0.0976,0.1071,0.1073,0.1076,0,0,0,0,0,0,0,0,0,0,0,0,0,0.0809,0.0759,0.0863,0.0896,0.09,0.0931,0.0931,0.0932,0.0975,0.0975,0.0976,0.0977,0.107,0.1073,0.1076,0.1082,0,0,0.1086,0.1087,0,0,0,0,0,0,0,0,0.0806,0.0813,0.0891,0.0894,0.0899,0.0947,0.0929,0.0985,0.0975,0.0944,0.0976,0.0977,0.1033,0.104,0.1047,0.1086,0.109,0.1086,0.1088,0.1089,0.109,0,0,0,0,0,0,0,0.0802,0.081,0.0888,0.0892,0.0897,0.0903,0.0911,0.0939,0.0983,0.0947,0.0951,0.0961,0.1036,0.1044,0.105,0.1092,0.1086,0.1089,0.1091,0.1092,0.1241,0.1243,0,0,0,0,0,0,0.0799,0.0807,0.0886,0.089,0.0856,0.0904,0.0913,0.0929,0.0982,0.0991,0.0961,0.0963,0.1038,0.1046,0.1053,0.1163,0.1089,0.1092,0.1094,0.1239,0.1241,0.1243,0,0,0,0,0,0,0.0796,0.0805,0.0883,0.0851,0.0862,0.0906,0.0923,0.093,0.0968,0.0993,0.1002,0.0995,0.1039,0.1049,0.1107,0.1164,0.1094,0.1097,0.1236,0.1239,0.1242,0.1319,0,0,0,0,0,0,0.0793,0.0804,0.0809,0.0851,0.0864,0.0919,0.0923,0.0931,0.0973,0.0977,0.1025,0.1032,0.104,0.1102,0.111,0.1167,0.1099,0.1234,0.1238,0.1241,0.1314,0.1325,0.1334,0,0,0,0,0,0.0789,0.079,0.0809,0.0818,0.0871,0.0921,0.0928,0.0959,0.0974,0.0995,0.1031,0.1032,0.1133,0.1106,0.1115,0.1174,0.1232,0.1237,0.1241,0.131,0.1323,0.1333,0,0,0,0,0,0,0.0746,0.0796,0.0817,0.0834,0.0885,0.0929,0.0947,0.0975,0.1019,0.1032,0.1054,0.1064,0.1142,0.1142,0.1112,0.1228,0.1185,0.1191,0.1234,0.1246,0.1256,0.1293,0.1102,0,0,0,0,0,0.0739,0.0753,0.0814,0.083,0.086,0.0911,0.0934,0.0967,0.1012,0.1033,0.1068,0.111,0.1163,0.119,0.1227,0.1283,0.1293,0.1328,0.1338,0.1346,0.1382,0.1428,0.1446,0.1259,0.1259,0.1258,0,0,0.0719,0.0755,0.0759,0.0821,0.0864,0.0917,0.0928,0.0982,0.1028,0.1037,0.1108,0.1149,0.1186,0.1257,0.1291,0.1267,0.1402,0.1352,0.1359,0.1391,0.1435,0.1453,0.1469,0.1262,0.1261,0.1261,0,0,0.0707,0.0737,0.0757,0.0806,0.0882,0.0925,0.0951,0.1022,0.1057,0.1138,0.1157,0.124,0.1302,0.1349,0.1379,0.1466,0.1454,0.1468,0.1548,0.1592,0.1608,0.1622,0.1645,0.1661,0.1469,0.147,0.147,0,0.0691,0.0731,0.077,0.0821,0.0863,0.0937,0.0989,0.1038,0.1118,0.1163,0.1176,0.1321,0.1361,0.1455,0.1503,0.1494,0.1499,0.1498,0.1605,0.162,0.1633,0.1653,0.167,0.1474,0.1473,0.1473,0.1472,0,0.0704,0.075,0.0774,0.0864,0.0909,0.097,0.1051,0.1115,0.1185,0.1245,0.1367,0.143,0.1522,0.1549,0.1569,0.1682,0.1648,0.1612,0.1575,0.1657,0.1672,0.1688,0.148,0.1478,0.1477,0.1476,0,0,0.0655,0.0762,0.0779,0.0824,0.0944,0.0983,0.1079,0.1189,0.1264,0.1367,0.147,0.16,0.1651,0.169,0.1713,0.1775,0.1888,0.175,0.175,0.1772,0.1971,0.1871,0.1878,0.1859,0.1862,0.1865,0.1938,0,0.0672,0.0752,0.0811,0.09,0.0949,0.1049,0.1128,0.1232,0.1336,0.1452,0.156,0.1682,0.1691,0.1766,0.1825,0.1893,0.1935,0.1871,0.189,0.1892,0.1793,0.1896,0.1876,0.195,0.1953,0.1956,0.1958,0,0.068,0.0732,0.0821,0.0922,0.0957,0.1031,0.1178,0.1274,0.1448,0.1535,0.1674,0.175,0.1912,0.1888,0.2032,0.1986,0.1999,0.2025,0.2026,0.1927,0.1823,0.1855,0.1986,0.1984,0.1982,0.198,0.1978,0,0.0613,0.0737,0.0807,0.0849,0.0986,0.1054,0.1153,0.1313,0.1408,0.1626,0.1729,0.1871,0.1997,0.2048,0.214,0.2094,0.2263,0.2186,0.209,0.2081,0.211,0.2094,0.2257,0.2257,0.2257,0.2257,0.2257,0,0.0601,0.065,0.0794,0.0825,0.0934,0.104,0.1173,0.1305,0.1483,0.1593,0.1788,0.1884,0.2051,0.2155,0.2177,0.2211,0.2288,0.2145,0.2112,0.2136,0.2123,0.2119,0.2103,0.226,0.2259,0.2259,0.2258,0,0.0529,0.062,0.07,0.0846,0.0911,0.1001,0.1188,0.1271,0.1479,0.1632,0.172,0.1953,0.2108,0.222,0.2334,0.227,0.2304,0.2271,0.2322,0.2283,0.207,0.2057,0.217,0.2168,0.2166,0.2164,0.2162,0,0.0502,0.0544,0.0709,0.0755,0.0837,0.0979,0.1071,0.1277,0.1344,0.1629,0.1674,0.1926,0.2045,0.217,0.2272,0.2326,0.2282,0.2276,0.2161,0.2115,0.2071,0.2061,0.205,0.2159,0.2158,0.2158,0.2157,0,0.044,0.0517,0.0576,0.068,0.0781,0.0877,0.1002,0.1057,0.1277,0.1463,0.1633,0.178,0.1952,0.209,0.2183,0.2188,0.2284,0.2253,0.2255,0.2146,0.2102,0.2059,0.2051,0.215,0.2151,0.2152,0.2152,0,0.0399,0.0421,0.0496,0.0595,0.069,0.0738,0.0833,0.0934,0.1069,0.1368,0.1405,0.1693,0.1898,0.2015,0.2076,0.213,0.2071,0.1982,0.1997,0.2006,0.1925,0.1844,0.182,0,0,0,0,0,0.0351,0.0347,0.0392,0.0464,0.0542,0.0608,0.0756,0.0845,0.1058,0.1141,0.1274,0.1432,0.1639,0.1794,0.1816,0.1957,0.204,0.1969,0.1932,0.211,0.2118,0.2042,0,0,0,0,0,0,0.0297,0.0322,0.0343,0.0334,0.0363,0.0437,0.0542,0.0686,0.074,0.0983,0.1124,0.1314,0.1547,0.1607,0.1778,0.1816,0.1758,0.2136,0.2132,0.2105,0.2113,0.2119,0.2044,0,0,0,0,0]},{"header":{"parameterUnit":"m.s-1","parameterCategory":2,"la1":30.2991,"la2":30.254,"lo1":-89.0895,"lo2":-89.0444,"dy":0.0017,"dx":0.0017,"nx":28,"ny":28,"refTime":"2025-07-07T21:00:00:Z","depth":"4","parameterNumber":3,"parameterNumberName":"V-component_of_CURRENTS"},"data":[0,0,0,0,0,0,0,0,0,0,0,0,0,0,0,0,0,0,0,0,0,0,0,0,0,0,0,0,0,0,0,0,0,0,0,0,0,0,0,0,0,0,0,0,0,0,0,0,0,0,0,0,0,0,0,0,0,0,0.047,0.047,0,0.047,0.047,0.047,0.0458,0.0457,0.0457,0.0457,0.039,0.0388,0.0387,0,0,0,0,0,0,0,0,0,0,0,0,0,0.0383,0.0385,0.047,0.047,0.047,0.047,0.047,0.047,0.0458,0.0457,0.0457,0.0457,0.039,0.0389,0.0387,0,0,0,0,0,0,0,0,0,0,0,0,0,0.0406,0.0386,0.047,0.0464,0.0463,0.047,0.047,0.047,0.0458,0.0457,0.0457,0.0456,0.0391,0.0389,0.0387,0.0383,0,0,0.038,0.0379,0,0,0,0,0,0,0,0,0.0405,0.0409,0.0465,0.0464,0.0464,0.0463,0.0415,0.0438,0.0458,0.046,0.0457,0.0456,0.0408,0.0405,0.0407,0.038,0.0377,0.038,0.0378,0.0377,0.0377,0,0,0,0,0,0,0,0.0403,0.0409,0.047,0.0465,0.0464,0.0434,0.0438,0.0419,0.0436,0.046,0.0459,0.0459,0.0408,0.0409,0.0405,0.0376,0.038,0.0378,0.0376,0.0376,0.0323,0.0323,0,0,0,0,0,0,0.0408,0.0408,0.047,0.047,0.0432,0.0437,0.0441,0.0464,0.0438,0.0434,0.0459,0.0458,0.0413,0.0408,0.0403,0.0385,0.0377,0.0375,0.0374,0.0323,0.0323,0.0323,0,0,0,0,0,0,0.0407,0.0415,0.047,0.0437,0.0442,0.0439,0.0465,0.0464,0.0473,0.0438,0.0432,0.047,0.0413,0.0406,0.0393,0.0383,0.0374,0.0372,0.0323,0.0323,0.0323,0.0358,0,0,0,0,0,0,0.0405,0.0415,0.0436,0.0439,0.0444,0.0483,0.0466,0.0465,0.0473,0.0472,0.0445,0.0438,0.0412,0.0396,0.0391,0.038,0.0371,0.0323,0.0323,0.0323,0.0356,0.0359,0.036,0,0,0,0,0,0.0402,0.0441,0.0438,0.0445,0.0474,0.0483,0.0484,0.0479,0.0474,0.0484,0.0464,0.0439,0.039,0.0395,0.0388,0.0376,0.0323,0.0323,0.0323,0.0356,0.0358,0.036,0,0,0,0,0,0,0.0421,0.0443,0.044,0.0486,0.0484,0.0481,0.0496,0.0488,0.0482,0.0482,0.0446,0.0438,0.0419,0.0398,0.0404,0.036,0.0349,0.0348,0.0376,0.0379,0.0381,0.0376,0.0369,0,0,0,0,0,0.0433,0.0469,0.047,0.0507,0.051,0.0503,0.0508,0.0503,0.0495,0.0494,0.0473,0.0444,0.0413,0.0398,0.0374,0.0358,0.0305,0.0343,0.0345,0.0347,0.0338,0.0244,0.0236,0.0322,0.0322,0.0322,0,0,0.0452,0.0468,0.0489,0.0513,0.0515,0.0515,0.0506,0.0521,0.0512,0.0486,0.0478,0.0455,0.0412,0.039,0.0378,0.0371,0.0298,0.0346,0.0348,0.0338,0.0243,0.0234,0.0227,0.0322,0.0322,0.0322,0,0,0.0485,0.0521,0.0543,0.0544,0.0547,0.0543,0.0549,0.0547,0.0539,0.0533,0.0499,0.0471,0.0446,0.0398,0.0372,0.037,0.0314,0.0369,0.0371,0.0281,0.0272,0.0264,0.02,0.0186,0.0367,0.0367,0.0367,0,0.0496,0.0531,0.0549,0.0554,0.0552,0.0555,0.0553,0.055,0.0541,0.0528,0.0536,0.047,0.044,0.0377,0.038,0.0371,0.0323,0.0367,0.0282,0.0272,0.0263,0.0199,0.0183,0.0368,0.0368,0.0368,0.0368,0,0.0525,0.0548,0.0565,0.0571,0.0571,0.0584,0.0568,0.0574,0.0572,0.0554,0.0515,0.0476,0.0432,0.0417,0.0401,0.0324,0.0313,0.0297,0.0274,0.0257,0.0191,0.0174,0.0371,0.037,0.037,0.0369,0,0,0.0556,0.0578,0.0584,0.0578,0.058,0.0583,0.0578,0.0562,0.0555,0.0539,0.0512,0.0456,0.0441,0.0409,0.0375,0.0301,0.0208,0.0283,0.0277,0.0217,0.0024,0.0038,0.002,0.0177,0.0174,0.0171,0.0008,0,0.0564,0.0578,0.0585,0.059,0.0587,0.0586,0.058,0.0565,0.0556,0.0539,0.0483,0.0459,0.0434,0.0425,0.0341,0.0248,0.0162,0.0255,0.0051,0.0045,0.0057,-0.0001,0.0161,-0.0005,-0.0009,-0.0012,-0.0014,0,0.0577,0.0583,0.0598,0.0588,0.0588,0.0598,0.0589,0.0591,0.0564,0.0554,0.0511,0.0477,0.0387,0.0374,0.0171,0.0236,0.013,0.0049,0.0041,0.0025,0.0025,0.0011,-0.0047,-0.0044,-0.0042,-0.0039,-0.0038,0,0.0571,0.0585,0.0603,0.0604,0.0604,0.0613,0.0622,0.0605,0.0616,0.0584,0.058,0.0461,0.0422,0.0265,0.0113,0.0138,-0.0116,-0.0108,-0.0207,-0.0206,-0.0183,-0.0173,-0.0281,-0.0281,-0.028,-0.028,-0.0279,0,0.0567,0.0572,0.0618,0.0619,0.0662,0.0642,0.0675,0.0674,0.0665,0.0662,0.0607,0.056,0.0391,0.0241,0.0095,-0.011,-0.0144,-0.0227,-0.0261,-0.016,-0.0146,-0.0195,-0.0183,-0.0286,-0.0285,-0.0283,-0.0282,0,0.0557,0.0581,0.0608,0.0636,0.0669,0.0708,0.0758,0.0779,0.0756,0.0751,0.0749,0.0628,0.0437,0.0245,-0.0018,-0.0124,-0.0323,-0.0395,-0.0269,-0.029,-0.0345,-0.0329,-0.0514,-0.0515,-0.0516,-0.0517,-0.0518,0,0.0544,0.0571,0.0659,0.0706,0.0736,0.08,0.0861,0.0864,0.086,0.0774,0.0759,0.0599,0.049,0.0141,-0.0062,-0.0355,-0.0389,-0.0485,-0.042,-0.0361,-0.0376,-0.0358,-0.0341,-0.0519,-0.0519,-0.052,-0.052,0,0.0526,0.0589,0.0624,0.074,0.0827,0.0906,0.0949,0.0954,0.0924,0.0904,0.0761,0.0596,0.0376,0.0135,-0.0094,-0.0304,-0.0412,-0.0495,-0.0494,-0.0434,-0.037,-0.0379,-0.0361,-0.0523,-0.0523,-0.0523,-0.0522,0,0.0538,0.0576,0.0652,0.0756,0.0878,0.095,0.0978,0.0949,0.0956,0.0837,0.0783,0.0567,0.0438,0.0156,-0.0066,-0.0257,-0.0289,-0.033,-0.0337,-0.0336,-0.0224,-0.0112,-0.0239,0,0,0,0,0,0.0533,0.0566,0.0648,0.0731,0.0855,0.0935,0.1006,0.1008,0.0976,0.0895,0.0828,0.0624,0.0318,0.0187,-0.0002,-0.0083,-0.0325,-0.031,-0.0376,-0.0543,-0.0539,-0.0435,0,0,0,0,0,0,0.0515,0.0583,0.0624,0.071,0.0781,0.0901,0.098,0.0963,0.0886,0.083,0.0676,0.0582,0.0292,0.0418,-0.0008,-0.0068,-0.0131,-0.0457,-0.0461,-0.0545,-0.0541,-0.0538,-0.0431,0,0,0,0,0]}]]